Flag for U.S.A. Weather past 2 weeks in Oberlin, Ohio, U.S.A.

Now
52 °F

Sunny.


Feels Like: 48 °F
Forecast: 41 / 54 °F
Wind: 13 mph from Northeast

Location: Lorain County Regional Airport


UV Index: 5 (Moderate)

Visibility: 10 mi


Pressure: 30.40 "Hg

Humidity: 47%

Dew point: 32 °F

Location of OberlinLocation

Historic Weather in Oberlin

°F

Oberlin temperature yesterday

Maximum temperature yesterday: 66 °F (at 1:53 PM)
Minimum temperature yesterday: 47 °F (at 6:53 AM)
Average temperature yesterday: 55 °F

Past Weeks' High & Low Weather Summary

 TemperatureHumidityPressure
High80 °F (Apr 13, 4:53 PM)89% (Apr 7, 8:53 PM)30.50 "Hg (Apr 7, 8:53 PM)
Low25 °F (Apr 16, 6:53 AM)26% (Apr 12, 2:53 PM)29.38 "Hg (Apr 8, 1:53 AM)
Average50 °F58%29.99 "Hg
* Reported Apr 4 1:01 PM — Apr 19 12:53 PM, Oberlin, Weather by CustomWeather, © 2014

Note: Actual official high and low records may vary slightly from our data, if they occured in-between our weather recording intervals... More about our weather records

Advertising

Historic Weather Conditions — Data for Previous 24 hours

 ConditionsComfort  
Time TempWeatherWind HumidityBarometerVisibility
12:53 PM
Apr 19
54 °FSunny.13 mph35%30.42 "Hg10 mi
11:53 AM50 °FSunny.10 mph50%30.43 "Hg10 mi
10:53 AM48 °FSunny.10 mph54%30.44 "Hg10 mi
9:53 AM45 °FSunny.10 mph60%30.44 "Hg10 mi
8:53 AM42 °FSunny.9 mph68%30.43 "Hg10 mi
7:53 AM39 °FSunny.7 mph76%30.42 "Hg10 mi
6:53 AM37 °FClear.6 mph76%30.40 "Hg10 mi
5:53 AM38 °FClear.10 mph73%30.37 "Hg10 mi
4:53 AM39 °FClear.9 mph73%30.35 "Hg10 mi
3:53 AM40 °FClear.13 mph77%30.34 "Hg9 mi
2:53 AM42 °FClear.15 mph76%30.33 "Hg8 mi
1:53 AM47 °FClear.14 mph77%30.31 "Hg8 mi
12:53 AM48 °FClear.8 mph74%30.30 "Hg9 mi
11:53 PM
Apr 18
48 °FClear.6 mph74%30.29 "Hg9 mi
10:53 PM49 °FPassing clouds.7 mph74%30.27 "Hg9 mi
9:53 PM49 °FPassing clouds.8 mph71%30.27 "Hg10 mi
8:53 PM52 °FSunny.13 mph64%30.25 "Hg10 mi
7:53 PM58 °FPartly sunny.9 mph56%30.23 "Hg10 mi
6:53 PM63 °FSunny.9 mph47%30.23 "Hg10 mi
5:53 PM63 °FPassing clouds.3 mph45%30.23 "Hg10 mi
4:53 PM63 °FMostly cloudy.8 mph45%30.24 "Hg10 mi
3:53 PM65 °FMostly cloudy.9 mph42%30.25 "Hg10 mi
2:53 PM65 °FOvercast.5 mph40%30.25 "Hg10 mi
Weather by CustomWeather, © 2014

See weather overview